TimeMST,TemperatureF,Dew PointF,Humidity,Sea Level PressureIn,VisibilityMPH,Wind Direction,Wind SpeedMPH,Gust SpeedMPH,PrecipitationIn,Events,Conditions,WindDirDegrees,DateUTC
12:15 AM,46.4,41.0,81,29.99,10.0,SSW,5.8,-,N/A,,Overcast,200,2013-01-28 07:15:00
12:35 AM,51.8,41.0,67,29.99,10.0,SW,10.4,-,N/A,,Overcast,220,2013-01-28 07:35:00
12:55 AM,50.0,41.0,71,29.99,10.0,SSW,10.4,-,N/A,,Mostly Cloudy,210,2013-01-28 07:55:00
1:15 AM,50.0,41.0,71,29.98,10.0,SSW,9.2,-,N/A,,Scattered Clouds,210,2013-01-28 08:15:00
1:35 AM,50.0,41.0,71,29.98,10.0,SSW,8.1,-,N/A,,Mostly Cloudy,210,2013-01-28 08:35:00
1:55 AM,50.0,41.0,71,29.98,10.0,SSW,9.2,-,N/A,,Overcast,210,2013-01-28 08:55:00
2:15 AM,51.8,41.0,67,29.97,10.0,SSW,9.2,-,N/A,,Overcast,200,2013-01-28 09:15:00
2:35 AM,51.8,41.0,67,29.97,10.0,SSW,9.2,-,N/A,,Overcast,200,2013-01-28 09:35:00
2:55 AM,50.0,41.0,71,29.97,10.0,SSW,11.5,17.3,N/A,,Overcast,200,2013-01-28 09:55:00
3:15 AM,50.0,41.0,71,29.97,10.0,SSW,8.1,-,N/A,,Overcast,200,2013-01-28 10:15:00
3:35 AM,50.0,41.0,71,29.97,10.0,SSW,12.7,16.1,N/A,,Overcast,210,2013-01-28 10:35:00
3:55 AM,50.0,42.8,76,29.97,10.0,SSW,9.2,-,N/A,,Overcast,210,2013-01-28 10:55:00
4:15 AM,50.0,42.8,76,29.95,10.0,SSW,11.5,-,N/A,,Mostly Cloudy,210,2013-01-28 11:15:00
4:35 AM,50.0,42.8,76,29.96,10.0,NNW,3.5,-,N/A,,Overcast,330,2013-01-28 11:35:00
4:55 AM,50.0,41.0,71,29.95,10.0,Calm,Calm,-,N/A,,Overcast,0,2013-01-28 11:55:00
5:15 AM,50.0,41.0,71,29.95,10.0,SW,13.8,-,N/A,,Mostly Cloudy,220,2013-01-28 12:15:00
5:35 AM,50.0,41.0,71,29.95,10.0,SSW,15.0,21.9,N/A,,Overcast,210,2013-01-28 12:35:00
5:55 AM,50.0,41.0,71,29.95,10.0,SSW,16.1,23.0,N/A,,Mostly Cloudy,210,2013-01-28 12:55:00
6:15 AM,50.0,41.0,71,29.95,10.0,SSW,15.0,20.7,N/A,,Scattered Clouds,200,2013-01-28 13:15:00
6:35 AM,50.0,39.2,66,29.95,10.0,SSW,16.1,20.7,N/A,,Scattered Clouds,210,2013-01-28 13:35:00
6:55 AM,50.0,39.2,66,29.95,10.0,SSW,18.4,23.0,N/A,,Scattered Clouds,210,2013-01-28 13:55:00
7:15 AM,50.0,39.2,66,29.96,10.0,SSW,15.0,21.9,N/A,,Scattered Clouds,210,2013-01-28 14:15:00
7:35 AM,50.0,39.2,66,29.97,10.0,SSW,17.3,26.5,N/A,,Mostly Cloudy,200,2013-01-28 14:35:00
7:55 AM,50.0,37.4,62,29.97,10.0,SSW,20.7,26.5,N/A,,Mostly Cloudy,200,2013-01-28 14:55:00
8:15 AM,50.0,37.4,62,29.97,10.0,SSW,19.6,26.5,N/A,,Scattered Clouds,200,2013-01-28 15:15:00
8:35 AM,51.8,37.4,58,29.97,10.0,SSW,20.7,27.6,N/A,,Clear,200,2013-01-28 15:35:00
8:55 AM,51.8,37.4,58,29.97,10.0,SSW,19.6,31.1,N/A,,Scattered Clouds,200,2013-01-28 15:55:00
9:15 AM,53.6,37.4,54,29.97,10.0,SSW,23.0,29.9,N/A,,Scattered Clouds,200,2013-01-28 16:15:00
9:35 AM,53.6,37.4,54,29.97,10.0,SSW,19.6,25.3,N/A,,Mostly Cloudy,200,2013-01-28 16:35:00
9:55 AM,55.4,37.4,51,29.97,10.0,SSW,21.9,25.3,N/A,,Scattered Clouds,200,2013-01-28 16:55:00
10:15 AM,55.4,37.4,51,29.97,10.0,South,17.3,24.2,N/A,,Scattered Clouds,190,2013-01-28 17:15:00
10:35 AM,55.4,37.4,51,29.97,10.0,South,16.1,23.0,N/A,,Mostly Cloudy,190,2013-01-28 17:35:00
10:55 AM,59.0,37.4,45,29.95,10.0,SSW,17.3,24.2,N/A,,Mostly Cloudy,200,2013-01-28 17:55:00
11:35 AM,59.0,37.4,45,29.95,10.0,SSW,21.9,32.2,N/A,,Mostly Cloudy,210,2013-01-28 18:35:00
11:55 AM,59.0,37.4,45,29.94,10.0,SSW,20.7,29.9,N/A,,Mostly Cloudy,200,2013-01-28 18:55:00
12:15 PM,59.0,37.4,45,29.92,10.0,SSW,25.3,32.2,N/A,,Mostly Cloudy,200,2013-01-28 19:15:00
12:35 PM,60.8,37.4,42,29.91,10.0,SW,21.9,31.1,N/A,,Scattered Clouds,220,2013-01-28 19:35:00
12:55 PM,59.0,37.4,45,29.90,10.0,SSW,20.7,29.9,N/A,,Mostly Cloudy,210,2013-01-28 19:55:00
1:15 PM,60.8,37.4,42,29.89,10.0,SSW,24.2,33.4,N/A,,Mostly Cloudy,210,2013-01-28 20:15:00
1:35 PM,59.0,37.4,45,29.89,10.0,SSW,27.6,36.8,N/A,,Mostly Cloudy,210,2013-01-28 20:35:00
1:55 PM,59.0,37.4,45,29.88,10.0,SW,25.3,34.5,N/A,,Mostly Cloudy,220,2013-01-28 20:55:00
2:15 PM,57.2,39.2,51,29.88,10.0,WSW,17.3,-,N/A,,Mostly Cloudy,240,2013-01-28 21:15:00
2:35 PM,55.4,37.4,51,29.89,10.0,SSW,27.6,32.2,N/A,,Overcast,210,2013-01-28 21:35:00
2:55 PM,55.4,37.4,51,29.88,10.0,SSW,21.9,29.9,N/A,,Scattered Clouds,210,2013-01-28 21:55:00
3:15 PM,55.4,37.4,51,29.88,10.0,North,-9999.0,-,N/A,,Mostly Cloudy,0,2013-01-28 22:15:00
3:35 PM,55.4,39.2,54,29.89,10.0,SW,19.6,26.5,N/A,,Scattered Clouds,220,2013-01-28 22:35:00
3:55 PM,55.4,37.4,51,29.89,10.0,SSW,24.2,34.5,N/A,,Mostly Cloudy,210,2013-01-28 22:55:00
4:15 PM,53.6,35.6,51,29.89,10.0,SW,20.7,32.2,N/A,,Scattered Clouds,220,2013-01-28 23:15:00
4:35 PM,50.0,37.4,62,29.90,10.0,WNW,10.4,27.6,N/A,,Mostly Cloudy,290,2013-01-28 23:35:00
4:55 PM,50.0,41.0,71,29.90,10.0,West,18.4,21.9,N/A,,Drizzle,280,2013-01-28 23:55:00
5:15 PM,46.4,42.8,87,29.90,3.0,West,9.2,-,0.02,Rain,Rain,280,2013-01-29 00:15:00
5:35 PM,46.4,42.8,87,29.90,5.0,WSW,4.6,-,0.03,,Drizzle,240,2013-01-29 00:35:00
5:55 PM,42.8,41.0,93,29.92,2.5,SW,13.8,25.3,0.09,Rain,Rain,230,2013-01-29 00:55:00
6:15 PM,44.6,41.0,87,29.91,5.0,WSW,16.1,25.3,0.01,Rain,Light Rain,240,2013-01-29 01:15:00
6:35 PM,44.6,39.2,81,29.92,7.0,SW,16.1,21.9,0.04,Rain,Light Rain,230,2013-01-29 01:35:00
6:55 PM,42.8,39.2,87,29.91,10.0,West,12.7,19.6,0.04,,Mostly Cloudy,260,2013-01-29 01:55:00
7:15 PM,42.8,39.2,87,29.91,10.0,WNW,15.0,-,N/A,Rain,Light Rain,300,2013-01-29 02:15:00
7:35 PM,41.0,39.2,93,29.93,5.0,WNW,17.3,21.9,N/A,Rain,Rain,300,2013-01-29 02:35:00
7:55 PM,37.4,35.6,93,29.94,3.0,WNW,15.0,24.2,0.04,Snow,Light Snow,300,2013-01-29 02:55:00
8:15 PM,37.4,35.6,93,29.93,5.0,NW,16.1,-,N/A,,Overcast,310,2013-01-29 03:15:00
8:35 PM,35.6,33.8,93,29.94,3.0,NW,8.1,-,0.03,Snow,Light Snow,320,2013-01-29 03:35:00
8:55 PM,33.8,33.8,100,29.95,1.0,NW,9.2,-,0.08,Snow,Snow,310,2013-01-29 03:55:00
9:15 PM,33.8,33.8,100,29.95,1.0,NW,6.9,-,0.04,Snow,Snow,320,2013-01-29 04:15:00
9:35 PM,33.8,33.8,100,29.95,0.8,NW,8.1,-,0.08,Snow,Snow,320,2013-01-29 04:35:00
9:55 PM,33.8,33.8,100,29.95,1.0,WNW,3.5,-,0.11,Snow,Snow,290,2013-01-29 04:55:00
10:15 PM,33.8,33.8,100,29.95,0.8,NW,3.5,-,0.03,Snow,Snow,310,2013-01-29 05:15:00
10:35 PM,33.8,33.8,100,29.95,3.0,West,3.5,-,0.04,Snow,Light Snow,280,2013-01-29 05:35:00
10:55 PM,33.8,33.8,100,29.95,5.0,Calm,Calm,-,0.05,Snow,Light Snow,0,2013-01-29 05:55:00
11:15 PM,33.8,33.8,100,29.95,7.0,Calm,Calm,-,N/A,,Overcast,0,2013-01-29 06:15:00
11:35 PM,33.8,33.8,100,29.97,4.0,Calm,Calm,-,N/A,Snow,Light Snow,0,2013-01-29 06:35:00
11:55 PM,33.8,33.8,100,29.95,4.0,NNW,10.4,-,N/A,Snow,Light Snow,340,2013-01-29 06:55:00